Beaufort MCAS, SC

10:11 PM EST on December 16, 2017 (GMT -0500)
Beaufort Marine Corps Air Station

Weather History for KNBC - August, 2012

Change the Weather History Date:

Thursday, August 23, 2012

  Actual Average Record
Temperature  
Mean Temperature 76 °F -  
Max Temperature 81 °F 88 °F 100 °F (1968)
Min Temperature 71 °F 72 °F 58 °F (1931)
Cooling Degree Days 11    
Growing Degree Days 26 (Base 50)    
Moisture  
Dew Point 72 °F    
Average Humidity 88    
Maximum Humidity 94    
Minimum Humidity 71    
Precipitation  
Precipitation 0.17 in - - ()
Sea Level Pressure  
Sea Level Pressure 30.07 in    
Wind  
Wind Speed 3 mph (North)    
Max Wind Speed 8 mph    
Max Gust Speed -    
Visibility 9 miles    
Events Rain , Thunderstorm    
Averages and records for this station are not official NWS values.
T = Trace of Precipitation, MM = Missing Value Source: NWS Daily Summary

Daily Weather History Graph

Daily Weather History Graph

Search for Another Location

Airport or City:

Trip Planner

Search our weather history database for the weather conditions in past years. The results will help you decide how hot, cold, wet, or windy it might be!

Date:

Astronomy

Aug. 23, 2012 Rise Set
Actual Time 6:52 AM EDT 7:57 PM EDT
Civil Twilight 6:26 AM EDT 8:23 PM EDT
Nautical Twilight 5:56 AM EDT 8:53 PM EDT
Astronomical Twilight 5:25 AM EDT 9:24 PM EDT
Moon 1:11 PM EDT (8/23) 11:52 PM EDT (8/23)
Length of Visible Light 13h 56m
Length of Day
13h 05m
Waxing Crescent, 40% of the Moon is Illuminated
Aug 23
Waxing Crescent
Aug 24
First Quarter
Aug 31
Full
Sep 8
Last Quarter
Sep 15
New

Hourly Weather History & Observations

Time (EDT) Temp. Heat Index Dew Point Humidity Pressure Visibility Wind Dir Wind Speed Gust Speed Precip Events Conditions
12:56 AM 75.0 °F - 73.0 °F 94% 30.06 in 10.0 mi Calm Calm - N/A   Partly Cloudy
1:32 AM 75.2 °F - 73.4 °F 94% 30.06 in 10.0 mi WNW 3.5 mph - N/A   Mostly Cloudy
1:43 AM 75.2 °F - 73.4 °F 94% 30.05 in 10.0 mi West 3.5 mph - N/A   Mostly Cloudy
1:56 AM 75.9 °F - 73.0 °F 91% 30.05 in 10.0 mi WNW 3.5 mph - N/A   Scattered Clouds
2:56 AM 75.9 °F - 73.0 °F 91% 30.06 in 10.0 mi NW 4.6 mph - N/A   Partly Cloudy
3:41 AM 75.2 °F - 73.4 °F 94% 30.05 in 10.0 mi WNW 4.6 mph - N/A   Mostly Cloudy
3:56 AM 75.9 °F - 73.0 °F 91% 30.05 in 10.0 mi WNW 4.6 mph - N/A   Mostly Cloudy
4:03 AM 75.2 °F - 73.4 °F 94% 30.04 in 10.0 mi West 3.5 mph - N/A   Partly Cloudy
4:56 AM 75.0 °F - 72.0 °F 90% 30.04 in 10.0 mi Calm Calm - N/A   Scattered Clouds
5:56 AM 73.9 °F - 71.1 °F 91% 30.05 in 10.0 mi NE 4.6 mph - N/A   Scattered Clouds
6:27 AM 73.4 °F - 71.6 °F 94% 30.05 in 10.0 mi NNE 6.9 mph - N/A   Scattered Clouds
6:56 AM 73.9 °F - 71.1 °F 91% 30.06 in 6.0 mi North 3.5 mph - N/A   Partly Cloudy
7:56 AM 75.0 °F - 72.0 °F 90% 30.08 in 5.0 mi NNE 5.8 mph - N/A   Overcast
8:03 AM 73.4 °F - 71.6 °F 94% 30.08 in 8.0 mi NNE 5.8 mph - N/A   Partly Cloudy
8:56 AM 77.0 °F - 72.0 °F 84% 30.09 in 10.0 mi ENE 4.6 mph - N/A   Scattered Clouds
9:29 AM 78.8 °F - 71.6 °F 78% 30.09 in 10.0 mi NE 5.8 mph - N/A   Overcast
9:56 AM 79.0 °F - 72.0 °F 79% 30.10 in 10.0 mi NNE 8.1 mph - N/A   Overcast
10:56 AM 81.0 °F 85.2 °F 72.0 °F 74% 30.11 in 10.0 mi NNE 6.9 mph - N/A   Overcast
11:03 AM 80.6 °F 84.6 °F 71.6 °F 74% 30.11 in 10.0 mi NE 5.8 mph - N/A   Overcast
11:56 AM 81.0 °F 84.9 °F 71.1 °F 72% 30.11 in 10.0 mi NNE 5.8 mph - N/A   Mostly Cloudy
12:56 PM 80.1 °F 83.2 °F 70.0 °F 71% 30.09 in 10.0 mi NE 5.8 mph - N/A   Mostly Cloudy
1:56 PM 79.0 °F - 70.0 °F 74% 30.10 in 10.0 mi North 3.5 mph - N/A   Mostly Cloudy
2:03 PM 78.8 °F - 71.6 °F 78% 30.10 in 10.0 mi North 3.5 mph - N/A   Partly Cloudy
2:49 PM 77.0 °F - 73.4 °F 89% 30.08 in 5.0 mi Calm Calm - 0.02 in Rain , Thunderstorm Light Rain
2:52 PM 77.0 °F - 73.4 °F 89% 30.08 in 5.0 mi Calm Calm - 0.03 in Rain , Thunderstorm Light Thunderstorms and Rain
2:56 PM 77.0 °F - 73.0 °F 88% 30.08 in 5.0 mi Calm Calm - 0.03 in Rain , Thunderstorm Light Thunderstorms and Rain
3:56 PM 75.9 °F - 73.9 °F 94% 30.09 in 5.0 mi SW 3.5 mph - 0.04 in Rain Light Rain
4:56 PM 75.9 °F - 73.0 °F 91% 30.08 in 8.0 mi West 4.6 mph - 0.04 in Rain Light Rain
5:18 PM 75.2 °F - 73.4 °F 94% 30.06 in 9.0 mi SW 4.6 mph - 0.00 in   Mostly Cloudy
5:56 PM 75.9 °F - 73.9 °F 94% 30.04 in 8.0 mi SSW 5.8 mph - 0.00 in   Mostly Cloudy
6:56 PM 75.9 °F - 73.0 °F 91% 30.05 in 10.0 mi Calm Calm - N/A   Scattered Clouds
7:56 PM 75.9 °F - 73.0 °F 91% 30.06 in 10.0 mi Calm Calm - N/A   Scattered Clouds
8:35 PM 75.2 °F - 73.4 °F 94% 30.06 in 10.0 mi Calm Calm - N/A   Mostly Cloudy
8:56 PM 75.0 °F - 72.0 °F 90% 30.07 in 10.0 mi NE 6.9 mph - N/A   Overcast
9:10 PM 73.4 °F - 69.8 °F 88% 30.08 in 10.0 mi East 5.8 mph - N/A   Overcast
9:56 PM 72.0 °F - 68.0 °F 87% 30.09 in 10.0 mi NE 3.5 mph - N/A   Overcast
10:56 PM 71.1 °F - 68.0 °F 90% 30.08 in 10.0 mi NE 3.5 mph - 0.06 in Rain Light Rain
11:56 PM 71.1 °F - 68.0 °F 90% 30.09 in 10.0 mi North 8.1 mph - 0.00 in   Mostly Cloudy